Aérodrome :
LOGIN :

S'inscrire | Disclaimer

   EN    FR    IT 

 










Légende :    VFR   VFR Marginal   IFR   IFR Intensif   IFR Très Intensif
Visi : 
Plafond : 
>= 8 km
>= 3000ft
5 à 8 km
1000 à 3000 ft
1500m à 5 km
500 à 1000 ft
800 à 1500m
200 à 500 ft
< 800m
< 200 ft
Symboles :   Orages  Brouillard  Fortes neiges  Fortes précipitations  Vent > 20 kt
SIGMETs :   Divers  Orages  Givrage  Turbulence  Onde Orograph.  Cendres Volcan.







- Altitude de l'aérodrome : 49 ft
- Code IATA : SEN
- Voir les cartes d'approche


EGMC - Southend

DERNIER METAR :
  • 180620Z 25013KT 9999 FEW018 17/12 Q1009

METARs EXPIRÉS :
  • 180550Z 21014KT 9999 FEW018 BKN022 17/13 Q1009
  • 180520Z 19009KT 9999 FEW030 17/14 Q1009
  • 180450Z 21009KT 9999 FEW030 16/13 Q1009
  • 180420Z 22006KT CAVOK 15/13 Q1010

TAF TAF EGMC
Valide du 18 à 06h jusqu'au 18 à 15h UTC


180501Z 1806/1815 22012KT 9999 SCT035
PROB30
TEMPO 1806/1812 7000 SHRA
TEMPO 1812/1815 26015G25KT 7000 SHRA
PROB30
TEMPO 1812/1815 4500 +SHRA
Pas de NOTAMs connus pour ce terrain.



MET'MAP, la Météo Aéronautique d'un coup d'oeil ! - Copyright ORBIFLY Décembre 2007 - Disclaimer

ORBIFLY MET'MAP TEAM :

Programmation & Développement : Alexandra Zaïnal
Conception & Développement : Baudouin d'Aumeries
Co-Programmation & Développement : Marc-Olivier Méhu
Soutien technique & logistique : Manuel Goepfert

Contact : metmap@orbifly.com




SOURCES & CREDITS :

   NOAA